Location: Rounton
(54.4000°N, 1.3500°W)
Time: 07:49:45
(UTC+00:00)

Tiros 1 despin weight - Pass Details

Date: 04 December 2021
Orbit: 592 x 641 km, 48.2° (Epoch: 19 January)

Event Time Altitude Azimuth Distance (km) Brightness Sun altitude
Rises 18:43:11 0° 270° (W) 2,827 ? -24.8°
Reaches altitude 10° 18:46:25 10° 245° (WSW) 1,924 ? -25.3°
Maximum altitude 18:48:42 14° 214° (SW) 1,679 ? -25.6°
Drops below altitude 10° 18:50:59 10° 183° (S) 1,927 ? -25.9°
Enters shadow 18:51:07 10° 181° (S) 1,955 ? -26.0°
Sets 18:54:14 0° 158° (SSE) 2,833 - -26.4°
